Location: Oriwa
(40.7500°S, 175.3333°E)
Time: 13:17:48
(UTC+00:00)

Cosmos 2151 Rocket - Pass Details

Date: 03 February 2023
Orbit: 616 x 641 km, 82.5° (Epoch: 30 March)

Event Time Altitude Azimuth Distance (km) Brightness Sun altitude
Rises 15:50:32 0° 185° (S) 2,941 7.6 -16.7°
Reaches altitude 10° 15:52:49 10° 181° (S) 2,022 6.7 -16.3°
Maximum altitude 15:57:16 62° 99° (E) 711 4.1 -15.7°
Drops below altitude 10° 16:01:37 10° 18° (NNE) 1,986 6.0 -15.0°
Sets 16:03:51 0° 15° (NNE) 2,882 6.8 -14.7°
